Date,TemperatureHighF,TemperatureAvgF,TemperatureLowF,DewpointHighF,DewpointAvgF,DewpointLowF,HumidityHigh,HumidityAvg,HumidityLow,PressureMaxIn,PressureMinIn,WindSpeedMaxMPH,WindSpeedAvgMPH,GustSpeedMaxMPH,PrecipitationSumIn
2012-4-13,68.1,59.9,50.1,57.5,51.2,48.8,96,75,54,29.90,29.68,29,6,34,0.21
2012-4-14,67.4,56.6,0.0,58.2,52.1,-78.6,97,87,1,29.91,29.41,32,4,32,0.42
2012-4-15,69.1,60.3,43.4,61.2,50.8,-78.6,98,76,28,29.60,29.27,43,9,43,0.10
2012-4-16,50.3,40.7,0.0,42.7,28.3,-78.6,96,73,1,30.31,1.40,43,12,44,0.04
2012-4-17,73.6,53.0,0.0,48.3,33.2,-78.6,89,57,1,30.32,1.40,26,5,26,0.00
2012-4-18,69.9,61.0,52.8,51.5,45.3,-78.6,84,58,36,30.10,30.00,31,3,31,0.32
2012-4-19,52.7,45.6,41.6,45.9,42.4,38.5,97,89,75,30.08,29.88,21,4,23,0.34
2012-4-20,60.7,46.1,0.0,40.3,24.1,-78.6,95,52,1,30.23,1.40,16,3,17,0.00
2012-4-21,67.9,47.7,0.0,45.3,19.6,-78.6,80,44,1,30.14,1.40,38,9,42,0.02
2012-4-22,61.4,49.0,0.0,41.9,34.6,-78.6,92,63,1,30.35,30.13,34,8,34,0.00
2012-4-23,73.9,55.5,35.9,41.2,35.0,27.5,96,55,22,30.35,29.93,13,2,15,0.00
2012-4-24,92.3,68.8,49.2,54.8,43.3,36.4,72,44,18,29.93,29.67,10,2,10,0.00
2012-4-25,83.7,72.2,60.8,51.9,44.9,37.6,72,40,21,29.93,29.62,35,7,36,0.00
2012-4-26,73.0,62.3,52.9,50.7,38.9,23.3,75,45,24,30.19,29.93,14,3,16,0.00
2012-4-27,62.9,51.8,42.9,41.2,37.0,29.6,93,59,32,30.15,29.76,40,8,42,0.51
2012-4-28,62.2,49.5,41.9,47.2,43.7,40.0,96,82,55,30.19,29.85,14,2,14,0.03
2012-4-29,54.1,49.2,46.4,48.1,46.0,44.3,97,89,77,30.22,30.09,17,2,19,0.00
2012-4-30,74.8,59.9,47.5,53.4,48.5,43.9,97,71,35,30.10,29.88,21,4,21,0.00
2012-5-1,84.7,69.4,57.2,61.6,57.6,53.0,95,69,40,29.88,29.65,27,5,31,0.00
2012-5-2,80.8,69.1,56.3,67.9,62.5,54.6,98,81,59,29.86,29.71,14,3,16,0.00
2012-5-3,89.9,76.1,65.4,68.1,58.3,44.7,93,59,25,29.98,29.78,21,2,21,0.01
2012-5-4,86.5,71.2,63.3,67.1,61.0,57.4,95,72,44,29.98,29.90,29,3,29,0.10
2012-5-5,90.1,75.3,62.5,72.9,66.3,60.7,98,76,45,30.00,29.84,25,3,27,0.01
2012-5-6,78.4,63.5,53.7,68.9,57.6,48.5,97,81,66,30.18,29.86,29,9,29,0.24
2012-5-7,67.4,58.0,49.4,49.9,40.6,29.8,92,56,28,30.22,30.12,27,9,28,0.00
2012-5-8,60.4,54.7,45.9,44.3,40.4,35.2,79,59,44,30.18,30.11,35,8,43,0.00
2012-5-9,70.8,56.0,40.9,47.1,40.8,36.0,96,61,29,30.21,30.02,14,2,14,0.00
2012-5-10,58.4,55.6,53.6,42.7,41.0,39.2,66,58,49,30.02,29.99,9,3,9,0.00
2012-5-13,80.4,72.2,56.9,49.3,37.8,31.4,59,31,20,30.38,30.24,9,2,11,0.00
2012-5-14,85.4,68.0,50.2,50.4,39.9,29.5,82,42,14,30.24,30.06,14,2,14,0.00
2012-5-15,78.0,67.7,57.4,45.1,37.0,30.3,52,34,18,30.23,30.02,26,5,26,0.00
2012-5-16,79.2,64.9,45.2,42.1,36.7,31.6,79,40,19,30.28,30.05,17,4,20,0.00
2012-5-17,90.6,76.0,61.6,52.2,43.3,34.8,51,33,17,30.05,29.85,27,7,27,0.00
2012-5-18,90.9,79.2,68.0,54.7,52.1,47.3,61,41,23,29.89,29.79,33,8,33,0.00
2012-5-19,80.8,71.9,59.6,62.0,57.9,52.3,98,63,43,30.02,29.82,28,7,28,0.94
2012-5-20,70.3,60.9,54.7,58.3,48.4,39.9,97,67,35,30.37,30.01,26,7,28,0.00
2012-5-21,73.9,63.4,48.6,49.9,44.4,38.7,91,54,31,30.40,30.16,16,3,17,0.00
2012-5-22,85.0,73.1,61.3,52.3,46.2,42.7,56,40,29,30.16,29.73,27,6,27,0.00
2012-5-23,83.4,72.6,57.6,59.9,51.5,44.3,98,49,35,29.74,29.56,25,7,26,0.71
2012-5-24,69.5,59.4,54.4,59.0,55.3,47.8,98,88,49,29.91,29.55,28,4,29,1.11
2012-5-25,65.9,58.6,51.5,59.3,55.3,50.7,97,89,75,30.15,29.91,11,1,11,0.03
2012-5-26,88.9,72.8,58.8,72.3,64.0,54.0,95,75,56,30.12,29.83,24,7,28,0.19
2012-5-27,89.5,76.4,60.2,70.3,64.8,59.4,98,70,43,29.86,29.67,32,5,35,1.31
2012-5-28,73.9,66.4,60.1,64.7,54.9,44.3,98,71,36,29.99,29.78,24,4,24,0.25
2012-5-29,69.5,61.1,53.6,53.1,43.6,39.2,87,54,34,30.14,29.99,31,7,31,0.00
2012-5-30,64.1,53.5,44.7,52.7,45.5,39.4,97,76,42,30.18,30.00,13,2,14,0.08
2012-5-31,63.7,53.4,0.0,51.1,47.2,-78.6,97,82,1,30.19,30.08,19,3,19,0.10
2012-6-1,66.4,55.0,44.4,54.2,47.8,37.5,97,80,37,30.14,29.94,14,2,14,0.05
2012-6-2,78.3,61.9,52.3,55.3,51.6,43.8,97,74,32,30.00,29.90,21,5,21,0.00
2012-6-3,86.3,78.3,71.6,63.2,60.1,57.8,75,55,39,29.94,29.87,16,4,17,0.00
2012-6-4,87.5,75.8,61.9,62.8,56.0,46.1,94,55,25,30.10,29.94,13,4,16,0.00
2012-6-5,88.3,73.7,0.0,63.1,53.0,-78.6,75,51,1,30.12,30.00,7,1,7,0.00
2012-6-6,86.2,76.3,65.9,60.8,57.5,54.4,80,54,36,30.15,30.02,15,3,16,0.00
2012-6-7,85.3,76.2,66.8,61.7,56.9,54.6,68,52,39,30.23,30.12,18,5,22,0.00
2012-6-8,87.8,77.6,67.9,59.0,54.3,51.0,59,46,32,30.16,29.93,21,4,21,0.00
2012-6-9,89.4,79.3,67.7,59.6,54.4,50.4,58,43,30,29.93,29.73,31,7,31,0.00
2012-6-10,82.8,75.0,62.4,65.8,60.6,52.8,85,62,46,29.92,29.72,25,6,25,0.01
2012-6-11,76.7,66.9,58.2,57.0,48.4,35.5,89,56,24,30.21,29.88,30,7,31,0.00
2012-6-12,74.8,62.9,49.6,52.1,44.3,40.2,84,53,31,30.36,30.20,16,2,16,0.01
2012-6-13,82.6,69.7,56.3,55.6,52.0,46.9,88,55,38,30.24,29.93,24,8,33,0.18
2012-6-14,85.9,77.8,71.1,70.7,64.4,55.1,85,65,48,30.03,29.88,22,4,24,0.00
2012-6-15,79.8,71.6,64.9,66.4,62.0,56.2,91,73,48,30.12,30.02,11,1,13,0.00
2012-6-16,80.5,70.0,62.6,66.5,60.3,50.0,99,75,35,30.17,30.04,24,3,25,0.22
2012-6-17,89.8,75.5,59.5,72.0,63.0,52.6,86,67,45,30.11,29.60,28,5,28,0.00
2012-6-18,97.5,84.4,76.2,72.2,65.9,61.3,65,55,36,29.71,29.52,18,4,19,0.00
2012-6-19,91.6,83.6,76.3,69.4,67.5,65.2,73,59,46,29.83,29.68,29,6,29,0.00
2012-6-20,80.9,68.7,0.0,67.5,60.3,-78.6,97,78,1,30.12,29.78,28,5,32,0.02
2012-6-21,80.2,67.6,0.0,60.3,53.1,-78.6,98,65,1,30.25,30.12,21,4,21,0.00
2012-6-22,83.8,72.9,59.9,59.7,55.9,51.4,87,58,36,30.21,30.03,20,4,20,0.00
2012-6-23,80.9,71.3,0.0,68.5,59.6,-78.6,96,70,1,30.08,29.90,21,6,21,0.29
2012-6-24,89.3,77.4,65.8,73.6,67.9,-78.6,96,74,54,30.11,29.98,11,2,11,0.00
2012-6-25,85.3,76.9,0.0,68.8,65.4,-78.6,86,69,1,30.19,30.06,18,4,19,0.00
2012-6-26,85.7,76.0,66.2,68.8,60.8,52.2,72,60,50,30.09,29.79,27,10,29,0.00
2012-6-27,102.6,86.9,76.7,75.9,67.9,-78.6,83,57,25,29.90,29.72,24,5,24,0.00
2012-6-28,93.5,78.7,0.0,74.9,63.1,-78.6,91,65,1,30.12,29.90,17,2,19,0.00
2012-6-29,89.2,77.8,69.4,69.6,64.0,57.7,94,64,37,30.07,29.95,19,2,20,0.20
2012-6-30,90.1,75.8,0.0,71.3,64.9,-78.6,99,72,1,30.06,29.93,26,2,26,0.02
2012-7-1,89.1,80.0,70.7,73.7,70.5,66.1,99,75,50,30.07,29.98,12,2,13,0.00
2012-7-2,94.5,84.0,74.8,73.5,68.7,65.4,85,62,40,30.04,29.96,16,3,16,0.00
2012-7-3,94.8,84.3,74.4,74.4,70.0,66.6,79,63,49,29.99,29.90,17,3,17,0.00
2012-7-4,95.7,85.9,76.7,72.0,68.5,63.4,72,57,42,29.96,29.90,17,4,20,0.00
2012-7-5,95.8,86.0,78.5,74.9,69.8,-78.6,74,59,46,30.08,29.96,16,4,16,0.00
2012-7-6,99.4,87.8,77.6,74.0,69.1,66.0,77,56,38,30.12,30.05,19,4,21,0.00
2012-7-7,86.8,76.9,69.0,73.5,64.8,57.8,91,68,44,30.28,30.12,17,4,19,0.00
2012-7-8,86.8,75.4,65.4,65.9,60.4,52.0,97,63,33,30.35,30.26,12,2,12,0.06
2012-7-9,88.9,75.6,62.4,65.6,61.9,57.7,97,66,37,30.31,30.25,17,3,18,0.06
2012-7-10,88.9,74.9,58.8,60.6,56.1,49.8,98,57,29,30.34,30.25,11,1,11,0.00
2012-7-11,87.8,75.4,62.0,62.2,59.1,54.2,98,60,34,30.28,30.16,12,2,14,0.00
2012-7-12,74.3,72.6,70.9,61.7,60.5,59.5,70,66,63,30.18,30.15,9,3,10,0.00
2012-7-18,94.9,86.2,78.9,71.1,68.9,65.2,76,58,40,30.07,30.02,7,1,9,0.00
2012-7-19,97.8,83.8,70.3,72.8,69.5,65.3,99,66,36,30.21,30.06,11,2,11,0.00
2012-7-20,95.3,83.4,73.9,72.0,68.9,65.0,82,64,38,30.27,30.16,20,5,20,0.00
2012-7-21,91.6,82.6,74.1,67.6,64.5,60.9,74,55,40,30.23,30.04,21,5,21,0.00
2012-7-22,104.3,87.6,75.3,71.7,63.6,57.7,77,47,27,30.15,30.05,17,3,17,0.04
2012-7-23,103.1,88.9,75.2,68.0,64.1,59.3,76,46,25,30.16,30.03,16,2,16,0.04
2012-7-24,99.8,88.3,77.1,68.2,64.3,60.8,62,46,32,30.06,29.86,22,4,22,0.00
2012-7-25,94.8,83.0,74.0,72.2,66.6,61.3,84,59,38,29.89,29.79,35,6,35,0.00
2012-7-26,90.1,79.2,67.9,70.9,61.1,50.3,99,60,27,30.08,29.87,28,6,30,0.00
2012-7-27,86.9,72.8,60.9,62.5,58.2,54.4,94,63,35,30.23,30.08,18,4,19,0.00
2012-7-28,81.1,72.7,66.0,64.0,61.0,58.5,90,68,51,30.28,30.09,26,5,26,0.04
2012-7-29,92.7,79.1,67.9,68.7,64.5,58.6,83,63,41,30.11,30.03,18,4,19,0.00
2012-7-30,100.9,83.6,69.4,71.5,65.3,51.5,99,62,21,30.12,30.05,13,2,14,0.00
2012-7-31,94.4,81.9,70.2,67.5,63.0,59.6,73,54,38,30.18,30.08,11,2,12,0.00
2012-8-1,98.1,84.3,70.4,68.0,62.9,57.2,88,52,27,30.10,29.95,26,3,30,0.02
2012-8-2,92.2,78.4,66.1,68.6,66.2,62.3,99,70,39,30.11,29.97,13,2,26,0.01
2012-8-3,96.6,82.5,69.8,70.1,64.0,54.4,81,56,29,30.04,29.85,27,3,31,0.00
2012-8-4,81.6,71.9,61.9,67.3,57.9,47.8,99,66,31,30.20,29.91,31,8,33,0.36
2012-8-5,85.6,70.0,56.4,58.8,55.4,50.7,98,64,33,30.40,30.21,11,2,11,0.00
2012-8-6,94.4,78.6,0.0,62.4,56.0,-78.6,66,49,1,30.26,30.08,15,4,17,0.00
2012-8-7,95.0,81.7,69.2,68.8,62.8,58.0,81,55,39,30.14,30.07,11,2,12,0.00
2012-8-8,90.9,78.6,70.9,68.7,64.8,56.9,86,64,36,30.16,30.05,16,2,16,0.06
2012-8-9,84.8,72.1,60.5,64.5,58.4,-78.6,98,66,34,30.22,30.15,26,5,26,0.00
2012-8-10,80.8,67.9,54.1,58.1,53.9,47.7,97,65,34,30.29,30.20,8,2,11,0.00
2012-8-11,77.1,67.2,56.1,59.8,55.5,53.2,95,68,47,30.22,30.07,16,2,16,0.00
2012-8-12,74.5,67.2,61.0,64.6,60.2,57.6,98,79,61,30.15,30.00,22,5,22,0.00
2012-8-13,82.5,69.0,59.8,59.5,56.3,51.1,98,68,36,30.25,30.13,14,3,14,0.00
2012-8-14,84.3,72.8,60.0,62.0,56.5,53.1,80,59,37,30.14,29.96,11,2,13,0.00
2012-8-15,71.8,69.9,67.5,62.1,61.5,60.7,79,75,71,29.96,29.95,11,3,11,0.00
2012-8-16,75.4,66.2,58.6,58.4,48.5,40.3,89,56,30,30.22,30.10,28,9,28,0.01
2012-8-17,80.0,63.9,48.2,50.3,44.7,36.7,94,56,22,30.28,30.15,9,2,11,0.00
2012-8-18,64.7,58.1,53.5,56.8,52.0,44.8,97,81,55,30.22,30.09,17,2,17,0.32
2012-8-19,79.9,62.0,47.8,62.7,52.8,46.9,97,76,34,30.22,30.12,18,2,18,0.03
2012-8-20,83.8,68.4,0.0,58.3,53.7,-78.6,97,65,1,30.15,30.10,11,1,12,0.00
2012-8-21,86.9,71.9,54.9,55.4,53.2,50.3,97,56,31,30.18,30.07,15,3,16,0.00
2012-8-22,89.9,78.0,65.9,60.9,55.6,51.9,63,47,32,30.07,29.99,22,5,23,0.00
2012-8-23,87.8,78.6,69.4,67.3,60.1,50.4,77,54,41,30.02,29.96,19,4,21,0.00
2012-8-24,83.2,74.8,67.9,67.2,64.8,62.6,90,72,51,30.04,29.97,21,4,21,0.00
2012-8-25,73.5,69.5,66.7,67.3,65.8,63.7,99,88,76,30.06,29.97,17,4,17,0.02
2012-8-26,86.8,72.4,63.0,68.0,65.5,62.4,99,82,46,30.21,30.06,6,1,9,0.00
2012-8-27,90.8,75.7,61.4,68.4,63.7,59.1,99,71,36,30.30,30.19,16,2,17,0.00
2012-8-28,94.2,80.4,68.9,64.5,61.4,56.0,81,56,31,30.22,30.03,18,5,21,0.00
2012-8-29,98.9,83.3,68.9,58.9,54.9,49.4,69,41,21,30.05,29.94,19,4,19,0.00
2012-8-30,99.9,83.8,70.6,65.2,56.3,49.0,68,42,20,30.09,29.95,17,4,17,0.00
2012-8-31,92.6,77.3,62.5,64.9,59.8,52.4,92,58,35,30.19,30.09,12,2,14,0.00
2012-9-1,92.8,78.7,65.5,66.5,59.3,52.5,71,53,37,30.20,30.09,13,2,16,0.00
2012-9-2,94.3,79.4,65.4,64.3,61.9,58.6,83,57,34,30.11,29.98,18,5,18,0.00
2012-9-3,85.5,75.6,67.8,67.8,64.1,59.6,90,69,43,30.07,29.99,12,2,12,0.01
2012-9-4,95.9,79.5,65.7,69.5,62.7,55.8,91,61,28,30.06,29.82,37,3,37,0.03
2012-9-5,80.1,69.6,59.8,63.7,54.4,40.0,98,64,25,30.09,29.88,26,5,26,0.01
2012-9-6,88.1,70.3,51.2,57.8,48.9,42.5,95,53,23,30.11,29.88,26,4,26,0.00
2012-9-7,74.9,65.7,55.6,60.0,50.3,41.5,86,60,33,30.24,29.89,25,5,25,0.02
2012-9-8,83.3,64.1,46.0,48.2,42.9,37.2,97,53,22,30.25,30.08,29,5,29,0.00
2012-9-9,77.5,61.9,44.8,50.7,44.5,39.4,86,56,30,30.37,30.21,8,2,9,0.00
2012-9-10,87.4,71.2,55.9,50.1,47.5,45.5,72,46,25,30.21,29.96,26,6,26,0.00
2012-9-11,94.8,79.2,64.6,51.3,48.6,45.6,59,37,20,30.01,29.92,24,6,24,0.00
2012-9-12,79.7,74.2,68.1,53.3,50.0,47.4,55,43,34,30.06,30.01,10,2,12,0.00
2012-9-16,73.1,68.7,65.0,58.9,56.4,54.0,78,65,52,30.04,30.01,10,3,10,0.00
2012-9-17,67.4,58.6,48.9,59.3,45.1,34.9,97,64,31,30.19,30.03,26,4,26,0.13
2012-9-18,72.7,54.8,36.6,44.1,38.5,32.9,96,61,26,30.21,29.98,13,2,13,0.00
2012-9-19,77.3,63.4,51.5,50.2,40.1,30.0,78,47,23,30.10,29.87,36,8,37,0.00
2012-9-20,70.3,58.5,47.9,46.5,34.0,29.2,66,42,24,30.16,30.02,12,2,17,0.00
2012-9-21,71.1,61.8,51.8,46.6,38.5,31.9,71,44,25,30.08,29.91,29,7,31,0.00
2012-9-22,55.9,51.8,46.1,40.2,34.5,29.4,60,52,48,30.20,30.08,17,4,19,0.00
2012-9-23,69.2,57.0,31.0,34.2,31.5,26.9,92,41,25,30.45,30.26,8,2,9,0.00
2012-9-24,78.5,61.4,47.9,44.9,38.9,32.1,63,46,27,30.26,29.95,12,3,12,0.00
2012-9-25,85.8,63.8,44.9,51.8,43.7,35.9,97,55,20,30.06,29.91,8,1,8,0.00
2012-9-26,75.8,60.3,45.5,38.4,32.3,24.1,68,38,15,30.26,30.06,15,2,16,0.00
2012-9-27,77.9,55.9,36.2,44.1,35.5,26.8,92,53,19,30.33,30.24,9,1,9,0.00
2012-9-28,77.2,56.2,37.4,47.4,36.0,27.9,92,53,17,30.31,30.22,9,1,9,0.00
2012-9-29,81.6,62.5,44.4,49.9,41.8,36.9,96,52,22,30.27,30.15,9,2,9,0.00
2012-9-30,82.3,62.3,47.6,53.2,45.0,40.4,95,59,24,30.15,30.02,9,1,9,0.00
2012-10-1,71.4,59.2,49.3,54.0,44.4,36.4,94,61,31,30.15,29.99,30,6,30,0.00
2012-10-2,76.2,55.8,35.3,39.6,32.0,23.6,96,48,15,30.11,29.95,12,2,12,0.00
2012-10-3,80.3,63.8,50.3,42.4,34.6,30.1,65,36,18,30.07,29.85,33,6,34,0.00
2012-10-4,53.6,47.3,35.7,42.9,34.9,26.2,78,63,43,30.40,30.06,35,13,36,0.00
2012-10-5,51.9,39.3,28.8,31.0,26.1,19.5,88,62,33,30.41,30.31,25,6,25,0.00
2012-10-6,46.8,34.9,21.6,29.5,22.6,15.2,87,62,40,30.44,30.36,24,5,24,0.00
2012-10-7,59.4,41.0,23.3,30.4,23.2,18.3,92,55,22,30.36,30.01,24,3,24,0.00
2012-10-8,72.9,56.6,43.4,45.9,33.0,26.9,68,44,19,30.01,29.82,20,4,23,0.00
2012-10-9,55.5,48.0,33.0,48.5,36.6,25.2,93,67,34,30.20,29.90,36,7,36,0.00
2012-10-10,64.8,52.5,30.7,32.8,28.6,22.8,84,43,28,30.28,30.05,16,3,16,0.00
2012-10-11,54.5,48.6,36.3,34.7,29.2,21.7,61,47,38,30.46,30.02,19,3,19,0.00
2012-10-12,57.9,44.5,29.7,42.8,25.5,17.7,86,51,22,30.47,30.07,24,5,24,0.00
2012-10-13,73.1,59.5,50.7,58.6,52.9,41.7,97,80,58,30.07,29.76,16,3,16,0.04
2012-10-14,63.9,53.9,44.5,53.5,39.6,32.5,88,61,35,30.06,29.77,29,8,29,0.00
2012-10-15,73.8,55.6,36.9,44.3,38.9,34.4,96,59,28,30.06,29.80,18,4,18,0.00
2012-10-16,74.4,62.4,52.2,48.8,45.9,43.0,87,57,36,29.80,29.46,21,5,22,0.00
2012-10-17,67.7,56.8,48.5,50.6,37.0,20.1,76,49,26,29.63,29.37,43,12,43,0.03
2012-10-18,53.3,45.0,41.9,43.4,38.4,-78.6,96,80,32,29.67,29.43,46,18,55,1.07
2012-10-19,44.4,42.8,41.3,41.6,40.7,39.5,96,92,86,29.90,29.63,44,14,49,0.19
2012-10-20,41.7,37.5,34.9,40.4,36.3,33.6,96,95,95,29.88,29.86,5,1,6,0.00
2012-10-25,37.3,36.2,34.3,33.1,30.4,-78.6,86,79,74,30.40,30.20,30,10,33,0.50
2012-10-26,39.2,35.9,33.2,30.6,27.7,-78.6,89,72,57,30.55,30.39,22,6,22,0.00
2012-10-27,43.7,35.0,25.1,33.4,27.2,22.9,94,74,54,30.47,30.31,15,3,15,0.01
2012-10-28,52.9,42.1,32.9,33.5,31.0,27.9,89,66,43,30.36,30.24,21,6,21,0.01
2012-10-29,57.5,47.5,40.6,34.3,31.4,29.2,65,54,39,30.27,30.18,22,7,25,0.00
2012-10-30,54.7,43.6,37.4,31.6,28.5,24.2,75,57,34,30.20,30.13,16,3,17,0.00
2012-10-31,62.9,44.6,29.3,36.4,31.8,25.4,95,64,35,30.14,30.04,9,1,9,0.00
2012-11-1,52.7,42.0,34.3,40.3,34.8,26.8,96,77,48,30.15,30.03,15,2,15,0.00
2012-11-2,47.3,38.7,32.5,35.9,28.6,26.2,92,68,50,30.18,30.04,15,3,15,0.00
2012-11-3,52.7,37.5,25.2,36.4,31.4,23.6,95,80,50,30.30,30.18,8,1,8,0.00
2012-11-4,54.9,45.2,37.9,45.7,38.6,33.8,97,79,53,30.25,30.11,15,2,15,0.12
2012-11-5,42.7,39.3,37.7,41.5,36.5,33.9,96,90,78,30.26,30.04,18,5,18,0.01
2012-11-6,53.4,44.3,37.3,41.2,35.5,31.5,93,73,49,30.15,29.96,43,10,43,0.00
2012-11-7,52.9,40.7,27.1,36.1,31.3,25.5,95,72,46,30.24,30.04,16,4,16,0.00
2012-11-8,64.3,48.0,38.5,37.4,34.0,31.4,88,61,33,30.04,29.94,17,5,20,0.00
2012-11-9,60.8,46.5,31.7,47.9,40.0,30.4,96,80,54,30.00,29.72,14,4,14,0.00
2012-11-10,64.1,51.6,32.2,55.7,47.1,30.4,97,86,53,29.79,29.54,31,6,31,0.67
2012-11-11,32.3,24.2,19.2,30.9,17.5,11.6,95,76,57,30.21,29.76,41,12,41,0.00
2012-11-12,35.9,25.5,18.0,18.6,15.2,11.9,83,66,42,30.41,30.19,24,6,27,0.00
2012-11-13,49.2,34.6,21.6,32.3,23.6,16.1,83,65,44,30.41,30.28,14,3,14,0.00
2012-11-14,53.4,40.6,25.9,33.1,28.4,23.2,94,64,41,30.36,30.22,10,2,10,0.00
2012-11-15,45.4,42.4,40.3,31.6,29.9,29.2,71,61,54,30.24,30.23,6,2,10,0.00
2012-11-16,50.9,43.7,28.8,34.2,31.2,23.0,81,62,50,30.53,30.32,18,6,18,0.00
2012-11-17,61.6,48.7,38.6,37.9,35.2,33.5,83,62,41,30.33,30.18,22,7,24,0.00
2012-11-18,62.3,50.2,40.3,38.0,33.3,29.1,66,53,36,30.19,30.09,21,6,21,0.00
2012-11-19,55.9,46.6,36.3,40.8,37.3,31.8,85,71,55,30.22,30.05,23,6,24,0.00
2012-11-20,59.1,43.3,27.6,37.6,32.7,26.1,95,70,41,30.30,30.13,18,4,18,0.00
2012-11-21,70.7,57.0,45.4,44.1,39.4,35.4,72,54,33,30.13,29.85,26,6,28,0.00
2012-11-22,57.7,46.8,31.9,43.9,36.7,22.0,89,68,59,30.33,29.78,45,11,45,0.00
2012-11-23,31.9,23.3,16.8,24.2,13.9,8.8,83,68,48,30.58,30.32,46,12,46,0.01
2012-11-24,42.1,29.5,16.7,26.0,16.3,10.1,88,59,40,30.45,29.93,27,5,27,0.00
2012-11-25,37.7,32.6,26.6,28.7,25.0,21.6,89,74,58,30.27,29.95,16,4,17,0.00
2012-11-26,30.9,23.0,13.3,24.5,15.3,7.7,85,72,61,30.54,30.27,17,3,17,0.00
2012-11-27,40.6,25.4,12.6,27.4,18.8,7.1,94,77,56,30.48,30.21,19,4,19,0.00
2012-11-28,46.5,31.3,18.1,28.7,22.7,16.4,93,73,43,30.45,30.13,18,3,19,0.00
2012-11-29,49.7,36.6,25.3,33.3,28.9,23.8,94,75,50,30.13,30.00,7,2,10,0.00
2012-11-30,44.4,32.0,18.9,33.6,27.5,17.2,94,84,63,30.20,30.02,16,3,16,0.00
2012-12-1,57.1,42.4,31.8,45.5,38.6,30.3,97,87,57,30.04,29.85,16,3,16,0.00
2012-12-2,58.7,41.5,25.5,43.8,35.5,24.0,95,81,56,30.08,29.82,18,4,18,0.00
2012-12-3,57.5,46.9,33.9,45.3,35.8,23.3,97,69,36,30.16,29.68,43,7,43,0.03
2012-12-4,52.2,39.3,29.7,28.2,23.9,-78.6,75,55,35,30.39,30.16,16,2,16,0.00
2012-12-5,53.9,38.6,0.0,29.7,22.1,-78.6,72,55,1,30.40,1.40,24,8,26,0.00
2012-12-6,51.6,44.0,37.9,38.0,30.2,23.8,82,59,34,30.11,29.92,26,6,26,0.04
2012-12-7,38.1,31.1,0.0,30.8,26.0,-78.6,95,83,1,30.11,30.00,9,1,9,0.02
2012-12-8,35.7,29.8,0.0,30.7,26.0,-78.6,94,89,1,30.10,29.90,20,4,21,0.01
2012-12-9,35.7,19.3,0.0,33.8,12.8,-78.6,95,83,1,30.24,29.88,39,13,39,4.13
2012-12-10,25.2,13.0,1.2,16.3,5.3,-1.4,92,73,49,30.25,29.98,29,5,30,0.01
2012-12-11,40.9,29.9,22.3,26.1,21.4,16.9,85,71,55,30.06,29.97,16,4,16,0.01
2012-12-12,51.4,39.4,27.9,20.9,18.2,16.0,64,44,28,30.02,29.95,23,6,26,0.00
2012-12-13,38.7,31.3,19.9,24.0,19.4,16.5,89,62,43,30.21,29.99,20,5,22,0.00
2012-12-14,48.9,34.4,17.9,39.0,26.4,15.9,93,74,53,30.19,29.72,18,4,19,0.02
2012-12-15,43.9,37.1,27.8,41.8,35.8,26.0,96,95,84,29.84,29.60,24,6,26,0.77
2012-12-16,27.9,25.0,23.3,26.0,23.1,20.9,94,92,88,29.94,29.83,16,5,18,0.75
2012-12-17,28.1,26.3,24.5,26.4,24.8,22.8,94,94,93,29.91,29.71,15,2,16,0.00
2012-12-18,37.7,29.0,23.9,32.0,27.0,22.2,94,92,78,29.96,29.58,20,4,21,0.00
2012-12-19,38.9,29.0,20.1,32.4,25.9,18.4,95,88,70,30.08,29.96,27,3,27,0.00
2012-12-20,20.2,16.1,8.5,18.5,13.9,6.7,93,91,82,30.35,30.04,37,13,37,0.03
2012-12-21,25.1,17.4,7.6,15.9,12.6,5.8,93,82,67,30.44,30.24,14,4,15,0.00
2012-12-22,34.6,20.9,11.6,24.8,17.6,8.7,93,87,65,30.24,30.06,19,6,21,0.00
2012-12-23,19.2,12.7,6.5,15.0,9.7,4.5,93,88,75,30.22,30.10,18,3,19,0.00
2012-12-24,14.6,10.1,2.2,9.9,6.3,-1.6,90,84,76,30.47,30.15,28,8,29,0.00
2012-12-25,9.5,3.9,-1.1,4.6,-0.7,-78.6,92,83,1,30.68,30.47,20,7,20,0.00
2012-12-26,18.3,7.6,-4.1,9.4,2.9,-5.9,92,82,62,30.56,30.31,10,2,11,0.00
2012-12-27,20.3,16.4,10.7,18.5,14.6,8.8,93,92,86,30.31,30.14,11,3,13,0.00
2012-12-28,19.5,15.3,8.3,17.6,13.5,6.4,93,92,89,30.26,30.12,20,4,20,0.00
2012-12-29,17.8,8.7,-1.5,13.5,6.3,-3.7,93,90,74,30.35,30.25,13,2,19,0.01
2012-12-30,33.7,18.1,1.4,25.7,13.8,-0.6,93,83,68,30.35,30.03,24,6,24,0.04
2012-12-31,21.6,14.5,0.7,16.0,11.0,-1.4,93,86,71,30.44,30.25,19,4,19,0.00
2013-1-1,20.3,11.9,0.7,17.0,8.5,-1.3,93,86,78,30.44,30.19,12,3,12,0.00